Weather History for Kalispell, MT

Change the Weather History Date:

Saturday, February 16, 2013

  Actual Average Record
Temperature  
Mean Temperature 29 °F 27 °F  
Max Temperature 36 °F 36 °F 56 °F (1977)
Min Temperature 22 °F 18 °F -25 °F (1956)
Degree Days  
Heating Degree Days 36 38  
Month to date heating degree days 520 620  
Since 1 July heating degree days 4893 5411  
Cooling Degree Days 0 0  
Month to date cooling degree days 0 0  
Year to date cooling degree days 0 0  
Moisture  
Dew Point 27 °F    
Average Humidity 88    
Maximum Humidity 100    
Minimum Humidity 75    
Precipitation  
Precipitation 0.02 in 0.03 in 0.58 in (1970)
Month to date precipitation 0.06 0.54  
Year to date precipitation 0.93 1.87  
Snow  
Snow 0.00 in - - ()
Month to date snowfall T  
Year to date snowfall 6.0  
Since 1 July snowfall 14.8  
Snow Depth 0.00 in    
Sea Level Pressure  
Sea Level Pressure 30.07 in    
Wind  
Wind Speed 2 mph (SSW)    
Max Wind Speed 10 mph    
Max Gust Speed 13 mph    
Visibility 10 miles    
Events Rain    
T = Trace of Precipitation, MM = Missing Value Source: NWS Daily Summary

Daily Weather History Graph

Daily Weather History Graph

Search for Another Location

Airport:

Trip Planner

Search our weather history database for the weather conditions in past years. The results will help you decide how hot, cold, wet, or windy it might be!

Date:

Astronomy

Feb. 16, 2013 Rise Set
Actual Time 7:41 AM MST 6:01 PM MST
Civil Twilight 7:09 AM MST 6:33 PM MST
Nautical Twilight 6:33 AM MST 7:09 PM MST
Astronomical Twilight 5:57 AM MST 7:45 PM MST
Moon 10:22 AM MST (2/16) 12:38 AM MST (2/16)
Length of Visible Light 11h 23m
Length of Day
10h 19m
Waxing Crescent, 40% of the Moon is Illuminated
Feb 16
Waxing Crescent
Feb 17
First Quarter
Feb 25
Full
Mar 4
Last Quarter
Mar 11
New

Hourly Weather History & Observations

Time (MST) Temp. Windchill Dew Point Humidity Pressure Visibility Wind Dir Wind Speed Gust Speed Precip Events Conditions
12:55 AM 27.0 °F 23.0 °F 26.1 °F 96% 30.33 in 10.0 mi West 3.5 mph - N/A   Clear
1:55 AM 26.1 °F 21.9 °F 24.1 °F 92% 30.32 in 10.0 mi SSE 3.5 mph - N/A   Clear
2:55 AM 25.0 °F - 24.1 °F 96% 30.30 in 10.0 mi Calm Calm - N/A   Clear
3:55 AM 24.1 °F - 21.9 °F 91% 30.28 in 10.0 mi Calm Calm - N/A   Clear
4:55 AM 23.0 °F - 21.0 °F 92% 30.26 in 4.0 mi Calm Calm - N/A   Clear
5:55 AM 23.0 °F - 21.0 °F 92% 30.25 in 9.0 mi Calm Calm - N/A   Clear
6:55 AM 24.1 °F - 21.9 °F 91% 30.23 in 10.0 mi Calm Calm - N/A   Mostly Cloudy
7:55 AM 25.0 °F - 23.0 °F 92% 30.22 in 10.0 mi Calm Calm - N/A   Mostly Cloudy
8:55 AM 26.1 °F - 25.0 °F 96% 30.20 in 10.0 mi Calm Calm - N/A   Mostly Cloudy
9:55 AM 28.0 °F - 27.0 °F 96% 30.19 in 10.0 mi Calm Calm - N/A   Overcast
10:55 AM 30.0 °F - 27.0 °F 88% 30.17 in 10.0 mi Calm Calm - N/A   Overcast
11:55 AM 30.9 °F - 28.0 °F 89% 30.14 in 10.0 mi Calm Calm - N/A   Overcast
12:55 PM 32.0 °F - 28.0 °F 85% 30.10 in 10.0 mi Calm Calm - N/A   Overcast
1:55 PM 34.0 °F - 28.0 °F 79% 30.06 in 10.0 mi Calm Calm - N/A   Overcast
2:55 PM 35.1 °F - 28.9 °F 78% 30.02 in 10.0 mi Calm Calm - N/A   Overcast
3:55 PM 35.1 °F - 30.0 °F 82% 29.98 in 10.0 mi Calm Calm - N/A   Overcast
4:55 PM 34.0 °F - 30.0 °F 85% 29.94 in 10.0 mi Calm Calm - 0.00 in   Overcast
5:55 PM 34.0 °F 29.8 °F 30.0 °F 85% 29.91 in 10.0 mi WNW 4.6 mph - 0.00 in   Overcast
6:40 PM 33.8 °F - 30.2 °F 87% 29.83 in 10.0 mi Calm Calm - 0.01 in Rain Light Rain
6:55 PM 33.1 °F 27.7 °F 30.9 °F 92% 29.91 in 9.0 mi ESE 5.8 mph - 0.02 in Rain Light Rain
7:08 PM 33.8 °F 30.8 °F 30.2 °F 87% 29.82 in 10.0 mi South 3.5 mph - 0.00 in   Overcast
7:55 PM 33.1 °F 30.0 °F 30.9 °F 92% 29.89 in 10.0 mi North 3.5 mph - 0.00 in   Overcast
8:55 PM 30.9 °F - 30.0 °F 96% 29.88 in 9.0 mi North - - N/A   Scattered Clouds
9:55 PM 30.9 °F 26.2 °F 30.0 °F 96% 29.88 in 9.0 mi South 4.6 mph - N/A   Mostly Cloudy
10:55 PM 34.0 °F 27.2 °F 32.0 °F 92% 29.87 in 10.0 mi SSW 8.1 mph - N/A   Overcast
11:55 PM 36.0 °F 29.0 °F 30.0 °F 79% 29.85 in 10.0 mi SSW 9.2 mph - N/A   Mostly Cloudy